Precipitable_Water
0.48 0.49 0.50 0.51 0.52 0.54 0.54 0.54 0.52 0.48 0.46 0.45 0.46 0.47 0.48 0.48 0.49 0.49 0.48 0.46 0.44 0.42
0.45 0.45 0.45 0.46 0.46 0.44 0.41 0.36 0.34 0.33 0.33 0.34 0.34 0.36 0.38 0.38 0.39 0.40 0.41 0.41 0.42 0.40
0.41 0.40 0.38 0.32 0.28 0.29 0.31 0.32 0.31 0.31 0.30 0.31 0.31 0.31 0.31 0.30 0.30 0.30 0.31 0.33 0.34 0.36
0.32 0.28 0.27 0.29 0.30 0.30 0.30 0.30 0.30 0.30 0.30 0.30 0.30 0.30 0.29 0.28 0.28 0.28 0.29 0.30 0.30 0.30
0.26 0.27 0.28 0.29 0.29 0.29 0.29 0.30 0.31 0.31 0.30 0.29 0.28 0.28 0.27 0.28 0.29 0.30 0.30 0.32 0.34 0.34
0.27 0.28 0.29 0.30 0.31 0.33 0.34 0.35 0.36 0.36 0.35 0.34 0.34 0.34 0.34 0.35 0.35 0.34 0.34 0.34 0.34 0.34
0.35 0.37 0.37 0.38 0.39 0.40 0.41 0.41 0.41 0.40 0.39 0.38 0.37 0.36 0.34 0.33 0.33 0.32 0.34 0.35 0.36 0.37
0.42 0.41 0.40 0.40 0.40 0.41 0.41 0.42 0.42 0.42 0.40 0.39 0.37 0.36 0.36 0.37 0.37 0.37 0.36 0.37 0.36 0.37
0.41 0.40 0.39 0.40 0.41 0.42 0.42 0.43 0.44 0.42 0.39 0.36 0.36 0.35 0.35 0.36 0.35 0.35 0.34 0.33 0.33 0.35
0.40 0.39 0.39 0.40 0.40 0.41 0.43 0.47 0.43 0.38 0.37 0.36 0.35 0.35 0.34 0.34 0.33 0.33 0.33 0.34 0.34 0.34
0.38 0.38 0.39 0.43 0.44 0.45 0.47 0.41 0.37 0.36 0.36 0.34 0.31 0.30 0.30 0.30 0.31 0.30 0.30 0.31 0.32 0.31
0.37 0.42 0.44 0.44 0.48 0.43 0.40 0.38 0.38 0.34 0.30 0.29 0.28 0.27 0.27 0.27 0.26 0.25 0.26 0.28 0.30 0.31
0.44 0.47 0.48 0.50 0.40 0.40 0.39 0.33 0.30 0.29 0.29 0.27 0.25 0.24 0.24 0.25 0.25 0.24 0.25 0.27 0.27 0.30
0.48 0.50 0.47 0.41 0.39 0.35 0.30 0.29 0.27 0.26 0.24 0.23 0.22 0.21 0.21 0.23 0.24 0.24 0.25 0.25 0.26 0.28
Wind_Speed
29 29 29 29 28 27 26 26 26 26 27 27 26 25 26 27 28 28 29 31 32 33
29 29 29 28 27 26 25 26 27 27 28 28 27 27 28 29 30 31 32 33 34 35
28 27 27 26 26 26 27 27 28 29 29 28 28 29 30 31 32 33 34 35 36 37
27 26 27 27 27 28 28 29 29 29 28 29 30 31 32 33 34 35 36 37 38 39
27 28 28 28 28 28 28 28 28 29 29 30 32 33 34 35 36 37 38 39 40 41
29 29 29 28 28 28 29 30 30 31 33 34 35 36 37 38 39 39 41 41 42 43
30 30 30 30 30 31 31 33 34 35 36 37 38 39 40 40 41 42 42 43 43 44
31 31 31 31 32 33 34 35 37 38 39 39 39 40 41 42 43 44 44 44 45 45
32 32 33 33 34 35 37 38 39 40 40 40 41 42 44 45 45 45 46 46 46 45
33 33 34 35 36 37 39 40 40 41 41 42 43 45 45 45 44 44 45 45 46 46
33 34 35 36 38 39 41 41 41 42 43 44 44 44 44 44 44 44 44 45 45 46
34 36 37 39 41 40 41 41 42 43 43 44 43 43 43 43 43 44 44 45 46 47
35 37 39 40 40 40 41 42 42 43 43 43 43 42 43 43 44 45 46 47 48 49
36 39 37 38 39 40 41 41 41 42 42 41 42 42 43 44 46 47 49 50 51 52
Wind_Direction
295 296 297 298 299 299 299 299 299 300 300 300 297 293 292 291 291 290 289 288 287 287
295 296 297 298 298 298 299 299 299 300 300 299 297 294 293 292 292 291 290 289 288 288
294 295 296 297 297 298 298 299 299 300 300 298 296 295 294 294 293 292 291 291 290 289
293 294 295 296 296 297 298 298 299 300 299 299 298 297 296 295 295 294 293 292 292 291
292 293 294 295 295 296 297 299 299 299 299 299 299 298 297 297 296 295 295 294 293 292
291 292 293 294 294 295 297 298 298 299 299 299 299 298 297 297 296 295 295 295 294 293
289 290 291 292 293 294 296 297 298 298 299 299 299 298 297 296 296 296 296 295 294 293
288 289 290 291 292 294 295 296 297 298 299 299 299 298 297 297 296 296 296 296 295 294
287 289 290 291 292 294 296 297 298 298 299 299 299 299 298 298 297 297 296 296 296 295
287 288 290 291 293 294 296 298 298 299 299 299 300 300 299 299 298 298 298 297 297 296
287 289 291 292 293 295 297 298 298 298 299 300 300 300 300 299 299 299 299 299 298 297
288 290 292 293 295 296 297 297 298 299 300 301 301 301 301 301 300 300 300 300 300 300
291 292 293 295 296 297 298 299 300 300 301 301 301 302 302 302 302 301 301 301 301 301
294 295 295 296 297 298 299 300 300 301 301 302 302 303 303 302 302 302 302 302 302 302